Flag for Germany Weather past 2 weeks in Neuruppin, Brandenburg, Germany

Now
47 °F

Clear.


Feels Like: 47 °F
Forecast: 53 / 65 °F
Wind: 2 mph from South

Location: Neuruppin

Current Time: Aug 22, 2014 at 4:04:15 AM

Latest Report: Aug 22, 2014 at 3:00 AM


Visibility: 6 mi

Pressure: 29.97 "Hg

Humidity: 92%

Dew point: 45 °F

Location of NeuruppinLocation

Historic Weather in Neuruppin — Graph

°F

Neuruppin temperature yesterday

Maximum temperature yesterday: 64 °F (at 3:00 PM)
Minimum temperature yesterday: 46 °F (at 6:00 AM)
Average temperature yesterday: 54 °F

Past Weeks' High & Low Weather Summary

 TemperatureHumidityPressure
High78 °F (Aug 9, 4:00 PM)98% (Aug 8, 7:00 AM)30.01 "Hg (Aug 8, 7:00 AM)
Low46 °F (Aug 21, 6:00 AM)46% (Aug 11, 4:00 PM)29.58 "Hg (Aug 18, 3:00 PM)
Average62 °F76%29.84 "Hg
* Reported Aug 7 3:00 AM — Aug 22 3:00 AM, Neuruppin, Weather by CustomWeather, © 2014

Note: Actual official high and low records may vary slightly from our data, if they occured in-between our weather recording intervals... More about our weather records

Advertising

Neuruppin weather history for previous 24 hours

 ConditionsComfort  
Time TempWeatherWind HumidityBarometerVisibility
3:00 AM
Aug 22
47 °FClear.2 mph92%29.97 "Hg6 mi
2:00 AM47 °FClear.1 mph92%29.98 "Hg5 mi
1:00 AM49 °FClear.1 mph89%29.98 "Hg6 mi
12:00 AM50 °FClear.1 mph87%29.98 "Hg6 mi
11:00 PM
Aug 21
50 °FClear.1 mph86%29.98 "Hg6 mi
10:00 PM52 °FClear.1 mph81%29.98 "Hg6 mi
9:00 PM55 °FClear.1 mph74%29.98 "Hg6 mi
8:00 PM60 °FSunny.1 mph61%29.97 "Hg6 mi
7:00 PM62 °FPartly sunny.2 mph56%29.97 "Hg6 mi
6:00 PM63 °FSunny.3 mph48%29.97 "Hg6 mi
4:00 PM64 °FPassing clouds.5 mph53%29.98 "Hg6 mi
3:00 PM64 °FScattered clouds.N/A51%29.99 "Hg6 mi
2:00 PM62 °FPassing clouds.2 mph61%30.00 "Hg6 mi
1:00 PM61 °FOvercast.1 mph64%30.01 "Hg6 mi
12:00 PM60 °FPassing clouds.1 mph71%30.01 "Hg6 mi
10:00 AM51 °FOvercast.1 mph90%30.01 "Hg6 mi
9:00 AM50 °FOvercast.1 mph92%30.01 "Hg6 mi
8:00 AM49 °FOvercast.1 mph93%30.00 "Hg6 mi
7:00 AM47 °FOvercast.2 mph94%29.99 "Hg6 mi
6:00 AM46 °FOvercast.1 mph94%29.99 "Hg6 mi
5:00 AM46 °FPassing clouds.2 mph94%29.98 "Hg6 mi
4:00 AM46 °FClear.1 mph95%29.98 "Hg6 mi
Weather by CustomWeather, © 2014

See weather overviewHow to use our weather pages